Regional Weather Roundup
Issued by NWS

Home | Current Version | Previous Version | Graphics & Text | Print | Product List | Glossary On
Versions: 1 2 3 4 5 6 7 8 9 10 11 12 13 14 15 16 17 18 19 20 21 22 23 24 25 26 27 28 29 30 31 32 33 34 35 36 37 38 39 40 41 42 43 44 45 46 47 48 49 50
000
ASUS43 KDMX 212307
RWRIA

WEATHER ROUNDUP FOR IOWA
NATIONAL WEATHER SERVICE DES MOINES IA
500 PM CST SUN DEC 21 2014

NOTE: "FAIR" INDICATES FEW OR NO CLOUDS BELOW 12,000 FEET WITH NO
SIGNIFICANT WEATHER AND/OR OBSTRUCTIONS TO VISIBILITY.

* - THESE STATIONS ARE NOT NWS STATIONS...THUS NOT UNDER NWS
QUALITY CONTROL.  THEY ALSO DO NOT REPORT WEATHER SUCH
AS PRECIPITATION OR FOG.

IAZ001>003-012>014-020>022-031>034-043>046-220000-
   NORTHWEST IOWA

CITY           SKY/WX    TMP DP  RH WIND       PRES   REMARKS
CARROLL *      CLOUDY    39  37  93 S16       29.74F WCI  30
CHEROKEE *     CLOUDY    39  39 100 S14G20    29.69S FOG     WCI  31
DENISON *      CLOUDY    39  39 100 S16G28    29.69F FOG     WCI  30
LE MARS *      CLOUDY    39  39 100 S18G26    29.65S FOG     WCI  30
ORANGE CITY *  CLOUDY    39  37  93 S18G28    29.64S FOG     WCI  30
SHELDON *      CLOUDY    39  39 100 S23G32    29.64R FOG     WCI  29
SIOUX CITY     CLOUDY    42  38  85 S15G24    29.66F
SPENCER        CLOUDY    39  36  89 S18       29.68F FOG     WCI  30
STORM LAKE *   FOG       37  37 100 S17G24    29.70F VSB 1/2 WCI  28
$$

IAZ055>058-069>071-079>083-090>094-220000-
   SOUTHWEST IOWA

CITY           SKY/WX    TMP DP  RH WIND       PRES   REMARKS
ATLANTIC *     CLOUDY    41  41 100 S13       29.75F FOG
AUDUBON *      MOCLDY    39  34  81 S12       29.75F HAZE    WCI  32
CLARINDA *     CLOUDY    41  41 100 S9        29.80S FOG
COUNCIL BLFS * CLOUDY    41  41 100 S14       29.71F
CRESTON *      CLOUDY    39  39 100 S12G18    29.79F FOG     WCI  32
HARLAN  *      CLOUDY    39  39 100 S14       29.76F FOG     WCI  31
LAMONI         CLOUDY    41  39  93 S8        29.82F
RED OAK *      CLOUDY    41  41 100 S13       29.76F FOG
SHENANDOAH *   CLOUDY    43  41  93 S14       29.77F FOG
$$

IAZ047>049-059>061-072>074-084-220000-
   CENTRAL IOWA

CITY           SKY/WX    TMP DP  RH WIND       PRES   REMARKS
AMES           CLOUDY    40  35  83 S12       29.80F WCI  33
ANKENY *       CLOUDY    41  39  93 S12       29.81F
CHARITON *     CLOUDY    41  39  93 S13       29.83F
DES MOINES     CLOUDY    43  37  79 S13       29.82S
GRINNELL*      DRIZZLE   39  37  93 S12       29.85F WCI  32
KNOXVILLE *    CLOUDY    41  37  87 S10       29.83F
MARSHALLTOWN   CLOUDY    39  38  96 S12       29.83R FOG     WCI  32
PELLA *        CLOUDY    41  37  87 S9        29.86F
PERRY *        CLOUDY    41  39  93 S16       29.78F
$$

IAZ004>006-015-016-023>025-035-036-220000-
   NORTH CENTRAL IOWA

CITY           SKY/WX    TMP DP  RH WIND       PRES   REMARKS
ALGONA *       CLOUDY    37  37 100 S22       29.73S FOG     WCI  27
CLARION *      CLOUDY    37  37 100 S14       29.77S WCI  29
ESTHERVILLE    CLOUDY    37  36  96 S24G31    29.69S FOG     WCI  26
FORT DODGE *   CLOUDY    39  34  81 S14G20    29.76S WCI  31
MASON CITY     LGT RAIN  37  35  92 S14       29.79R WCI  28
FOREST CITY *  LGT RAIN  37  36  93 S15G25    29.76S WCI  28
IOWA FALLS *   CLOUDY    39  36  87 S14       29.81F WCI  31
$$

IAZ007>011-017>019-026>030-037>042-050>054-066-220000-
   NORTHEAST IOWA

CITY           SKY/WX    TMP DP  RH WIND       PRES   REMARKS
CEDAR RAPIDS   CLOUDY    39  36  89 S14       29.89R WCI  31
CHARLES CITY * CLOUDY    37  37 100 S15       29.83S FOG     WCI  28
CLINTON *      CLOUDY    37  30  75 S17G23    30.00S WCI  28
DECORAH *      CLOUDY    36  36 100 S7G15     29.85S FOG     WCI  30
DUBUQUE        CLOUDY    36  33  89 S17       29.92S WCI  26
MONTICELLO *   CLOUDY    37  37 100 SE13      29.92R WCI  29
OELWEIN *      CLOUDY    37  37 100 S15       29.87R FOG     WCI  28
WATERLOO       CLOUDY    38  37  97 S12       29.86R FOG     WCI  30
$$

IAZ064-065-067-068-078-220000-
   EAST CENTRAL IOWA

CITY           SKY/WX    TMP DP  RH WIND       PRES   REMARKS
DAVENPORT      CLOUDY    38  31  76 SE17      29.96S WCI  28
IOWA CITY      CLOUDY    41  35  79 SE13      29.92F
MT. PLEASANT * CLOUDY    41  36  81 SE13      29.93S
MUSCATINE *    CLOUDY    41  36  81 SE12G20   29.95S
QUAD CITIES    CLOUDY    38  32  79 SE13      29.97R WCI  30
$$

IAZ062-063-075>077-085>089-095>099-220000-
   SOUTHEAST IOWA

CITY           SKY/WX    TMP DP  RH WIND       PRES   REMARKS
BURLINGTON     CLOUDY    41  35  79 S13       29.94F
FAIRFIELD *    CLOUDY    41  37  87 SE12      29.90S
FORT MADISON * CLOUDY    43  37  81 SE12G18   29.95S
KEOKUK *       CLOUDY    43  36  75 SE9G16    29.93F
OSKALOOSA *    CLOUDY    39  37  93 S9        29.88S WCI  33
CENTERVILLE *  CLOUDY    41  41 100 SE10      29.88S
OTTUMWA        CLOUDY    42  37  82 S10       29.88S
WASHINGTON *   CLOUDY    41  41 100 SE13      29.91S
$$

ABBREVIATIONS USED IN REMARKS
   TC - TEMPERATURES IN CELSIUS
  WCI - WIND CHILL INDEX
   HX - HEAT INDEX
  VSB - VISIBILITY
$$



USA.gov is the U.S. government's official web portal to all federal, state and local government web resources and services.